Location: Chavenne
(46.6022°N, 3.2951°E)
Time: 14:17:33
(UTC+00:00)

Cosmos 1980 Rocket - Pass Details

Date: 09 April 2020
Orbit: 829 x 850 km, 71.0° (Epoch: 27 May)

Event Time Altitude Azimuth Distance (km) Brightness Sun altitude
Rises 21:36:36 0° 334° (NNW) 3,389 6.5 -28.0°
Reaches altitude 10° 21:39:04 10° 338° (NNW) 2,454 5.5 -28.3°
Enters shadow 21:44:15 65° 34° (NNE) 923 2.3 -28.8°
